CW7218 Weather Reports


time (UTC)temp
F
wind
direction
speed
knots
gust
knots
rain 1hr
in
rain 24hr
in
rain mn
in
humidity
%
barometer
mb
20260831160027 82 0 11.3 20.9 0.00 0.00 0.00 56 1020.0
20260831155027 83 0 10.4 16.5 0.00 0.00 0.00 53 1020.1
20260831154027 84 0 9.6 17.4 0.00 0.00 0.00 47 1020.1
20260831153027 86 0 7.8 13.9 0.00 0.00 0.00 42 1020.3
20260831152027 87 0 7.0 13.0 0.00 0.00 0.00 34 1020.0
20260831151027 86 0 7.0 14.8 0.00 0.00 0.00 37 1020.1
20260831150027 86 0 7.0 13.0 0.00 0.00 0.00 39 1020.1
20260831145047 86 0 7.0 15.6 0.00 0.00 0.00 37 1020.1
20260831144027 86 0 7.0 15.6 0.00 0.00 0.00 37 1020.2
20260831143027 86 0 7.0 13.0 0.00 0.00 0.00 39 1020.4
20260831142047 86 0 5.2 12.2 0.00 0.00 0.00 39 1020.5
20260831141027 85 135 4.3 11.3 0.00 0.00 0.00 39 1020.5
20260831140027 85 158 4.3 9.6 0.00 0.00 0.00 38 1020.7
20260831135027 85 135 5.2 13.9 0.00 0.00 0.00 39 1020.7
20260831134027 83 113 5.2 13.0 0.00 0.00 0.00 40 1020.8
20260831133027 83 113 5.2 11.3 0.00 0.00 0.00 41 1020.9
20260831132027 84 113 3.5 9.6 0.00 0.00 0.00 41 1021.0
20260831131049 84 135 4.3 10.4 0.00 0.00 0.00 41 1021.1
20260831130029 84 90 2.6 7.0 0.00 0.00 0.00 40 1021.3
20260831125029 83 135 4.3 10.4 0.00 0.00 0.00 40 1021.3
20260831124029 83 180 3.5 8.7 0.00 0.00 0.00 41 1021.5
20260831123029 82 158 2.6 7.0 0.00 0.00 0.00 40 1021.5
20260831122028 82 158 4.3 8.7 0.00 0.00 0.00 39 1021.6
20260831121029 82 0 5.2 10.4 0.00 0.00 0.00 38 1021.6
20260831120028 82 180 2.6 7.0 0.00 0.00 0.00 38 1021.8
20260831115049 81 135 4.3 8.7 0.00 0.00 0.00 39 1021.9
20260831114029 81 0 4.3 8.7 0.00 0.00 0.00 39 1021.9
20260831113049 81 158 2.6 7.0 0.00 0.00 0.00 39 1021.7
20260831112028 80 180 3.5 9.6 0.00 0.00 0.00 41 1021.9
20260831111029 80 180 3.5 8.7 0.00 0.00 0.00 43 1021.8
20260831110048 79 158 3.5 7.8 0.00 0.00 0.00 42 1021.9
20260831105028 78 180 4.3 8.7 0.00 0.00 0.00 43 1022.0
20260831104029 79 158 2.6 7.0 0.00 0.00 0.00 42 1022.0
20260831103028 79 158 3.5 10.4 0.00 0.00 0.00 42 1022.2
20260831102028 79 0 3.5 10.4 0.00 0.00 0.00 41 1022.1
20260831101028 79 158 2.6 6.1 0.00 0.00 0.00 42 1022.2
20260831100109 78 158 2.6 7.0 0.00 0.00 0.00 43 1022.1
20260831095028 77 180 3.5 7.0 0.00 0.00 0.00 46 1022.1
20260831094028 77 180 3.5 7.0 0.00 0.00 0.00 46 1022.1
20260831093028 77 203 1.7 5.2 0.00 0.00 0.00 47 1022.2
20260831092028 77 180 2.6 5.2 0.00 0.00 0.00 48 1022.2
20260831091028 77 180 3.5 6.1 0.00 0.00 0.00 48 1022.2
20260831090048 76 180 2.6 6.1 0.00 0.00 0.00 49 1022.1
20260831085028 76 0 3.5 7.0 0.00 0.00 0.00 50 1022.1
20260831084028 77 158 2.6 5.2 0.00 0.00 0.00 49 1022.0
20260831083028 77 158 1.7 4.3 0.00 0.00 0.00 48 1022.1
20260831082028 76 158 1.7 3.5 0.00 0.00 0.00 52 1022.0
20260831081028 76 158 1.7 4.3 0.00 0.00 0.00 53 1021.8
20260831080028 76 158 0.9 2.6 0.00 0.00 0.00 51 1021.8
20260831075028 75 68 0.9 2.6 0.00 0.00 0.00 54 1021.8
20260831074028 73 0 0.9 1.7 0.00 0.00 0.00 56 1021.6
20260831073048 72 45 0.9 3.5 0.00 0.00 0.00 58 1021.5
20260831072028 70 68 2.6 6.1 0.00 0.00 0.00 60 1021.3
20260831071028 70 68 2.6 5.2 0.00 0.00 0.00 60 1021.3
20260831070028 68 68 3.5 7.8 0.00 0.00 0.00 63 1021.2
20260831065048 67 45 4.3 7.8 0.00 0.00 0.00 64 1020.9
20260831064028 67 45 4.3 7.8 0.00 0.00 0.00 63 1020.8
20260831063028 67 45 5.2 7.8 0.00 0.00 0.00 63 1020.8
20260831062028 66 45 4.3 7.0 0.00 0.00 0.00 64 1020.7
20260831061028 66 23 5.2 7.8 0.00 0.00 0.00 65 1020.5
20260831060048 65 45 4.3 7.8 0.00 0.00 0.00 65 1020.6
20260831055027 65 23 6.1 8.7 0.00 0.00 0.00 65 1020.4
20260831054028 65 23 6.1 10.4 0.00 0.00 0.00 66 1020.4
20260831053027 65 45 6.1 9.6 0.00 0.00 0.00 66 1020.3
20260831052027 64 68 6.1 7.8 0.00 0.00 0.00 67 1020.1
20260831051028 65 45 4.3 7.0 0.00 0.00 0.00 65 1020.0
20260831050027 65 45 4.3 7.0 0.00 0.00 0.00 66 1020.1
20260831045028 65 45 4.3 7.0 0.00 0.00 0.00 65 1020.2
20260831044027 65 45 5.2 8.7 0.00 0.00 0.00 66 1020.2
20260831043027 65 45 6.1 8.7 0.00 0.00 0.00 66 1020.2
20260831042027 65 23 6.1 9.6 0.00 0.00 0.00 65 1020.2
20260831041048 65 23 6.1 10.4 0.00 0.00 0.00 65 1020.2
20260831040027 65 23 6.1 9.6 0.00 0.00 0.00 66 1020.4
20260831035027 65 45 7.8 10.4 0.00 0.00 0.00 65 1020.4
20260831034028 66 45 7.8 12.2 0.00 0.00 0.00 64 1020.3
20260831033027 66 68 7.0 10.4 0.00 0.00 0.00 64 1020.2
20260831032027 66 68 7.0 9.6 0.00 0.00 0.00 65 1020.2
20260831031027 66 45 7.0 10.4 0.00 0.00 0.00 63 1020.4
20260831030027 67 45 5.2 8.7 0.00 0.00 0.00 62 1020.3
20260831025027 67 45 6.1 9.6 0.00 0.00 0.00 63 1020.4
20260831024027 66 45 6.1 8.7 0.00 0.00 0.00 64 1020.4
20260831023027 66 23 5.2 9.6 0.00 0.00 0.00 64 1020.3
20260831022027 66 45 4.3 7.0 0.00 0.00 0.00 63 1020.3
20260831021026 66 45 4.3 7.0 0.00 0.00 0.00 63 1020.3
20260831020026 66 45 4.3 7.0 0.00 0.00 0.00 63 1020.4
20260831015026 67 45 5.2 7.8 0.00 0.00 0.00 62 1020.5
20260831014026 67 45 6.1 7.8 0.00 0.00 0.00 61 1020.4
20260831013046 68 23 4.3 7.0 0.00 0.00 0.00 60 1020.5
20260831012046 68 0 4.3 7.0 0.00 0.00 0.00 60 1020.4
20260831011026 68 45 3.5 5.2 0.00 0.00 0.00 60 1020.4
20260831010026 68 23 3.5 7.0 0.00 0.00 0.00 61 1020.4
20260831005046 68 0.0 3.5 0.00 0.00 0.00 60 1020.4
20260831004026 69 248 0.9 2.6 0.00 0.00 0.00 59 1020.2
20260831003026 69 23 5.2 7.8 0.00 0.00 0.00 59 1020.2
20260831002046 69 23 5.2 9.6 0.00 0.00 0.00 57 1020.2
20260831001046 69 23 5.2 8.7 0.00 0.00 0.00 57 1020.0
20260831000026 70 23 6.1 9.6 0.00 0.00 0.00 57 1020.3
20260830235026 70 0 6.1 9.6 0.00 0.00 0.00 58 1020.3
20260830234026 69 23 6.1 9.6 0.00 0.00 0.00 59 1020.4
20260830233046 69 23 6.1 11.3 0.00 0.00 0.00 60 1020.3
20260830232026 68 68 6.1 8.7 0.00 0.00 0.00 61 1020.4
20260830231026 68 45 5.2 7.8 0.00 0.00 0.00 60 1020.4
20260830230026 69 45 4.3 7.8 0.00 0.00 0.00 59 1020.4
20260830225026 69 23 6.1 10.4 0.00 0.00 0.00 58 1020.4
20260830224026 68 45 6.1 8.7 0.00 0.00 0.00 59 1020.3
20260830223026 69 45 4.3 8.7 0.00 0.00 0.00 58 1020.5
20260830222026 69 23 4.3 7.0 0.00 0.00 0.00 57 1020.4
20260830221028 70 68 3.5 6.1 0.00 0.00 0.00 57 1020.2
20260830220048 70 68 4.3 6.1 0.00 0.00 0.00 57 1020.1
20260830215028 70 45 5.2 7.0 0.00 0.00 0.00 57 1020.2
20260830214028 70 45 4.3 7.0 0.00 0.00 0.00 57 1020.1
20260830213028 70 45 3.5 7.0 0.00 0.00 0.00 57 1020.1
20260830212028 71 45 3.5 6.1 0.00 0.00 0.00 55 1020.1
20260830211028 72 23 3.5 6.1 0.00 0.00 0.00 52 1020.1
20260830210028 72 0 4.3 6.1 0.00 0.00 0.00 52 1020.0
20260830205028 72 23 3.5 6.1 0.00 0.00 0.00 52 1020.0
20260830204028 73 23 1.7 3.5 0.00 0.00 0.00 51 1020.0
20260830203028 73 0 1.7 3.5 0.00 0.00 0.00 50 1019.6
20260830202028 73 338 3.5 6.1 0.00 0.00 0.00 51 1019.6
20260830201048 74 315 2.6 5.2 0.00 0.00 0.00 50 1019.6
20260830200027 74 315 1.7 3.5 0.00 0.00 0.00 50 1019.4
20260830195027 75 315 0.9 1.7 0.00 0.00 0.00 49 1019.3
20260830194028 75 315 0.9 3.5 0.00 0.00 0.00 49 1019.2
20260830193028 76 248 2.6 5.2 0.00 0.00 0.00 48 1018.8
20260830192027 77 0 2.6 6.1 0.00 0.00 0.00 47 1018.7
20260830191027 77 248 1.7 3.5 0.00 0.00 0.00 47 1018.7
20260830190047 77 225 1.7 3.5 0.00 0.00 0.00 46 1018.3
20260830185048 77 270 2.6 3.5 0.00 0.00 0.00 46 1018.2
20260830184047 78 248 2.6 6.1 0.00 0.00 0.00 45 1018.1
20260830183027 79 225 3.5 7.0 0.00 0.00 0.00 44 1017.8
20260830182047 79 225 3.5 7.0 0.00 0.00 0.00 44 1017.7
20260830181027 79 225 3.5 8.7 0.00 0.00 0.00 44 1017.7
20260830180027 79 248 5.2 7.8 0.00 0.00 0.00 44 1017.7
20260830175027 81 225 5.2 9.6 0.00 0.00 0.00 43 1017.6
20260830174047 81 0 6.1 8.7 0.00 0.00 0.00 41 1017.7
20260830173027 82 225 6.1 10.4 0.00 0.00 0.00 40 1017.6
20260830172027 83 225 5.2 9.6 0.00 0.00 0.00 40 1017.6
20260830171027 82 0 6.1 11.3 0.00 0.00 0.00 41 1017.5
20260830170027 82 0 7.8 12.2 0.00 0.00 0.00 41 1017.4
20260830165047 83 0 6.1 11.3 0.00 0.00 0.00 41 1017.5
20260830164027 83 0 7.8 14.8 0.00 0.00 0.00 41 1017.5
20260830163047 83 0 9.6 16.5 0.00 0.00 0.00 41 1017.4
20260830162027 83 0 7.0 11.3 0.00 0.00 0.00 42 1017.4
20260830161027 84 158 7.0 14.8 0.00 0.00 0.00 42 1017.5